Location: ?????????
(54.7630°N, 39.4991°E)
Time: 21:38:15
(UTC+00:00)

CZ-2C R/B - Pass Details

Date: 14 April 2026
Orbit: 781 x 868 km, 98.4° (Epoch: 16 May)

Event Time Altitude Azimuth Distance (km) Brightness Sun altitude
Exits shadow 21:03:25 54° 117° (ESE) 1,031 2.9 -25.5°
Maximum altitude 21:04:25 65° 69° (ENE) 940 2.9 -25.5°
Drops below altitude 10° 21:09:51 10° 349° (NNW) 2,474 6.1 -25.5°
Sets 21:12:13 0° 346° (NNW) 3,400 7.1 -25.5°
